This demonstration page uses our WeatherBlox Daily Observations layout. Learn more.

Left ArrowRight Arrow

Hourly Observations for March 17, 2015

Temp ( °F °C ) Dew Point ( °F °C ) Humidity (%) Winds ( mph kmh ) Pressure ( in mb ) Visibility ( mi km ) Precip ( " mm )
12:53 am 00:53 Clear 55 12.8 53 11.7 93 93 NNW 5 7 30.02 1017 10 16 0.00 0.00
1:53 am 01:53 Mostly Clear 54 12.2 52 11.1 93 93 NNE 3 6 30.01 1016 10 16 0.00 0.00
2:53 am 02:53 Cloudy 54 12.2 52 11.1 93 93 Calm 30.01 1016 10 16 0.00 0.00
3:53 am 03:53 Cloudy 55 12.8 53 11.7 93 93 NW 3 6 30.00 1016 10 16 0.00 0.00
4:53 am 04:53 Cloudy 55 12.8 53 11.7 93 93 Calm 30.00 1016 10 16 0.00 0.00
5:53 am 05:53 Cloudy 54 12.2 52 11.1 93 93 NW 3 6 30.01 1016 10 16 0.00 0.00
6:51 am 06:51 Partly Cloudy with Mist and Fog 52 11 52 11 100 100 Calm 30.03 1017 2 2 0.00 0.00
6:53 am 06:53 Partly Cloudy with Mist and Fog 52 11.1 51 10.6 97 97 Calm 30.02 1017 1 2 0.00 0.00
6:57 am 06:57 Partly Cloudy 52 11.1 51 10.6 97 97 Calm 30.03 1017 10 16 0.00 0.00
7:53 am 07:53 Partly Cloudy 50 10 49 9.4 96 96 WNW 5 7 30.04 1017 10 16 0.00 0.00
8:53 am 08:53 Sunny 57 13.9 53 11.7 87 87 Calm 30.06 1018 10 16 0.00 0.00
9:53 am 09:53 Sunny 61 16.1 54 12.2 78 78 NE 3 6 30.07 1018 10 16 0.00 0.00
10:53 am 10:53 Sunny 64 17.8 52 11.1 65 65 Calm 30.07 1018 10 16 0.00 0.00
11:53 am 11:53 Sunny 67 19.4 53 11.7 61 61 E 3 6 30.06 1018 10 16 0.00 0.00
12:53 pm 12:53 Sunny 69 20.6 49 9.4 49 49 SE 3 6 30.05 1018 10 16 0.00 0.00
1:53 pm 13:53 Sunny 71 21.7 48 8.9 44 44 VRB 3 6 30.03 1017 10 16 0.00 0.00
2:53 pm 14:53 Sunny 72 22.2 45 7.2 38 38 SSE 3 6 30.01 1016 10 16 0.00 0.00
3:53 pm 15:53 Sunny 72 22.2 43 6.1 35 35 Calm 30.00 1016 10 16 0.00 0.00
4:53 pm 16:53 Sunny 73 22.8 41 5 32 32 SSE 5 7 29.98 1015 10 16 0.00 0.00
5:53 pm 17:53 Sunny 73 22.8 40 4.4 30 30 E 5 7 29.98 1015 10 16 0.00 0.00
6:53 pm 18:53 Sunny 70 21.1 46 7.8 42 42 SE 3 6 29.98 1015 10 16 0.00 0.00
7:53 pm 19:53 Clear 63 17.2 45 7.2 52 52 Calm 30.00 1016 10 16 0.00 0.00
8:53 pm 20:53 Clear 66 18.9 39 3.9 37 37 N 3 6 30.02 1017 10 16 0.00 0.00
9:53 pm 21:53 Clear 61 16.1 41 5 48 48 N 5 7 30.03 1017 10 16 0.00 0.00
10:53 pm 22:53 Clear 56 13.3 44 6.7 65 65 N 3 6 30.05 1018 10 16 0.00 0.00
11:53 pm 23:53 Clear 52 11.1 45 7.2 77 77 N 5 7 30.05 1018 10 16 0.00 0.00

Powered by AerisWeather